EW4727 Weather Reports


time (UTC)temp
C
wind
direction
speed
KPH
gust
KPH
rain 1hr
cm
rain 24hr
cm
rain mn
cm
humidity
%
barometer
mb
20190421060704 14 51 0.0 0.0 0.00 0.00 0.00 73 1013.4
20190421055704 15 51 0.0 0.0 0.00 0.00 0.00 71 1013.3
20190421053705 15 51 0.0 0.0 0.00 0.00 0.00 71 1013.1
20190421052704 15 51 0.0 0.0 0.00 0.00 0.00 68 1013.1
20190421051704 15 51 0.0 0.0 0.00 0.00 0.00 66 1012.9
20190421045704 16 51 0.0 0.0 0.00 0.00 0.00 65 1013.0
20190421044705 16 51 0.0 0.0 0.00 0.00 0.00 65 1013.0
20190421043705 16 51 0.0 1.6 0.00 0.00 0.00 66 1013.0
20190421041705 15 38 0.0 0.0 0.00 0.00 0.00 68 1013.1
20190421040704 16 38 0.0 0.0 0.00 0.00 0.00 70 1013.0
20190421035709 16 38 0.0 0.0 0.00 0.00 0.00 70 1013.0
20190421033704 16 38 0.0 0.0 0.00 0.00 0.00 71 1012.9
20190421032705 17 38 0.0 0.0 0.00 0.00 0.00 68 1012.9
20190421031705 17 40 0.0 0.0 0.00 0.00 0.00 60 1012.9
20190421025705 18 40 0.0 0.0 0.00 0.00 0.00 56 1012.9
20190421024704 18 40 0.0 0.0 0.00 0.00 0.00 54 1012.8
20190421023705 18 40 0.0 8.0 0.00 0.00 0.00 53 1012.8
20190421022713 19 55 1.6 16.1 0.00 0.00 0.00 52 1012.7
20190421021704 19 70 4.8 12.9 0.00 0.00 0.00 52 1012.5
20190421020705 19 77 4.8 29.0 0.00 0.00 0.00 51 1012.4
20190421015704 20 80 8.0 22.5 0.00 0.00 0.00 51 1012.3
20190421014704 20 103 8.0 25.7 0.00 0.00 0.00 51 1012.3
20190421013705 20 103 8.0 20.9 0.00 0.00 0.00 51 1012.3
20190421012704 20 106 12.9 27.4 0.00 0.00 0.00 50 1012.5
20190421010704 20 85 3.2 20.9 0.00 0.00 0.00 52 1012.6
20190421005704 20 115 8.0 24.1 0.00 0.00 0.00 52 1012.7
20190421004704 20 93 9.7 25.7 0.00 0.00 0.00 53 1012.7
20190421003712 20 94 8.0 20.9 0.00 0.00 0.00 54 1012.6
20190421002704 20 88 6.4 20.9 0.00 0.00 0.00 54 1012.6
20190421001704 20 119 3.2 25.7 0.00 0.00 0.00 55 1012.6
20190420235704 21 106 8.0 24.1 0.00 0.00 0.00 56 1012.7
20190420234704 20 131 6.4 25.7 0.00 0.00 0.00 58 1012.9
20190420233704 19 118 8.0 19.3 0.00 0.00 0.00 63 1012.9
20190420232712 18 122 3.2 14.5 0.00 0.00 0.00 77 1013.0
20190420231704 17 92 0.0 0.0 0.00 0.00 0.00 83 1013.1
20190420230704 17 92 0.0 0.0 0.00 0.00 0.00 83 1013.1
20190420224704 16 94 0.0 3.2 0.00 0.00 0.00 88 1013.1
20190420223704 16 116 0.0 0.0 0.00 0.00 0.00 90 1013.2
20190420222704 16 117 0.0 0.0 0.00 0.00 0.00 91 1013.1
20190420220704 16 117 0.0 0.0 0.00 0.00 0.00 91 1013.1
20190420215705 16 117 0.0 4.8 0.00 0.00 0.00 91 1013.1
20190420214704 16 169 0.0 0.0 0.00 0.00 0.00 90 1013.0
20190420212705 16 169 0.0 0.0 0.00 0.00 0.00 89 1013.2
20190420211704 16 169 0.0 0.0 0.00 0.00 0.00 88 1013.2
20190420210704 17 169 0.0 4.8 0.00 0.00 0.00 87 1013.2
20190420205715 17 169 0.0 0.0 0.00 0.00 0.00 86 1013.2
20190420204705 17 169 0.0 0.0 0.00 0.00 0.00 86 1013.2
20190420203704 17 169 0.0 0.0 0.00 0.00 0.00 86 1013.0
20190420202704 17 169 0.0 4.8 0.00 0.00 0.00 85 1013.0
20190420200704 18 188 0.0 1.6 0.00 0.00 0.00 82 1012.9
20190420195704 18 333 0.0 3.2 0.00 0.00 0.00 81 1012.8
20190420194704 19 332 0.0 3.2 0.00 0.00 0.00 78 1012.8
20190420193705 20 332 0.0 0.0 0.00 0.00 0.00 74 1012.9
20190420192705 21 327 0.0 0.0 0.00 0.00 0.00 70 1012.9
20190420191706 22 327 0.0 4.8 0.00 0.00 0.00 64 1012.9
20190420185704 23 326 1.6 8.0 0.00 0.00 0.00 59 1012.9
20190420184704 23 335 1.6 9.7 0.00 0.00 0.00 59 1012.9
20190420183705 23 330 0.0 16.1 0.00 0.00 0.00 59 1012.9
20190420181704 23 350 6.4 19.3 0.00 0.00 0.00 58 1013.1
20190420180704 23 333 9.7 16.1 0.00 0.00 0.00 59 1013.1
20190420175704 23 358 6.4 20.9 0.00 0.00 0.00 59 1013.1
20190420174704 24 330 12.9 20.9 0.00 0.00 0.00 58 1013.2
20190420173705 24 331 9.7 19.3 0.00 0.00 0.00 58 1013.3
20190420172704 24 326 8.0 14.5 0.00 0.00 0.00 58 1013.4
20190420171704 24 332 8.0 12.9 0.00 0.00 0.00 60 1013.4
20190420170704 24 335 6.4 16.1 0.00 0.00 0.00 60 1013.4
20190420165704 23 333 9.7 19.3 0.00 0.00 0.00 61 1013.5
20190420164704 24 326 4.8 19.3 0.00 0.00 0.00 61 1013.5
20190420162704 23 328 9.7 22.5 0.00 0.00 0.00 56 1013.5
20190420161704 23 316 11.3 19.3 0.00 0.00 0.00 56 1013.7
20190420160704 23 338 11.3 25.7 0.00 0.00 0.00 54 1013.8
20190420154704 23 330 14.5 29.0 0.00 0.00 0.00 52 1013.9
20190420153704 24 337 14.5 24.1 0.00 0.00 0.00 47 1014.0
20190420152704 23 332 16.1 29.0 0.00 0.00 0.00 47 1014.3
20190420151706 24 307 8.0 22.5 0.00 0.00 0.00 49 1014.3
20190420145704 23 325 12.9 22.5 0.00 0.00 0.00 53 1014.5
20190420144704 24 335 9.7 24.1 0.00 0.00 0.00 53 1014.7
20190420143704 25 292 3.2 11.3 0.00 0.00 0.00 55 1014.8
20190420142704 24 265 1.6 9.7 0.00 0.00 0.00 55 1014.8
20190420141712 24 315 1.6 19.3 0.00 0.00 0.00 58 1014.9
20190420135704 23 298 3.2 11.3 0.00 0.00 0.00 61 1015.0
20190420134704 23 257 1.6 12.9 0.00 0.00 0.00 64 1015.2
20190420133708 22 270 4.8 14.5 0.00 0.00 0.00 69 1015.1
20190420131704 22 241 0.0 9.7 0.00 0.00 0.00 69 1015.5
20190420130704 22 284 1.6 11.3 0.00 0.00 0.00 67 1015.6
20190420125708 22 294 1.6 4.8 0.00 0.00 0.00 67 1015.8
20190420124712 22 306 1.6 12.9 0.00 0.00 0.00 66 1016.0
20190420123704 22 335 1.6 9.7 0.00 0.00 0.00 64 1015.9
20190420122704 22 338 1.6 9.7 0.00 0.00 0.00 65 1015.8
20190420121704 22 295 1.6 4.8 0.00 0.00 0.00 64 1016.1
20190420120704 22 302 0.0 4.8 0.00 0.00 0.00 66 1016.2
20190420115703 21 322 4.8 8.0 0.00 0.00 0.00 68 1016.4
20190420114705 21 338 0.0 8.0 0.00 0.00 0.00 72 1016.5
20190420113704 21 292 3.2 12.9 0.00 0.00 0.00 69 1016.7
20190420112704 22 264 0.0 8.0 0.00 0.00 0.00 65 1016.8
20190420111704 22 234 0.0 8.0 0.00 0.00 0.00 62 1016.8
20190420110704 22 207 0.0 3.2 0.00 0.00 0.00 61 1016.9
20190420104705 21 212 1.6 8.0 0.00 0.00 0.00 64 1017.2
20190420103705 21 227 0.0 4.8 0.00 0.00 0.00 68 1017.1
20190420102704 20 231 0.0 4.8 0.00 0.00 0.00 68 1017.3
20190420100704 20 254 0.0 4.8 0.00 0.00 0.00 71 1017.5
20190420095705 20 331 0.0 3.2 0.00 0.00 0.00 73 1017.7
20190420094705 20 338 0.0 4.8 0.00 0.00 0.00 70 1017.9
20190420092704 20 339 0.0 0.0 0.00 0.00 0.00 69 1017.9
20190420090704 20 341 1.6 4.8 0.00 0.00 0.00 63 1017.9
20190420084705 18 22 0.0 4.8 0.00 0.00 0.00 69 1017.9
20190420083704 18 322 3.2 9.7 0.00 0.00 0.00 71 1017.9
20190420082703 17 347 3.2 12.9 0.00 0.00 0.00 68 1018.0
20190420080704 17 344 3.2 9.7 0.00 0.00 0.00 72 1018.0
20190420075704 17 321 3.2 9.7 0.00 0.00 0.00 71 1017.9
20190420074704 17 311 3.2 4.8 0.00 0.00 0.00 71 1018.0
20190420072704 17 26 0.0 1.6 0.00 0.00 0.00 67 1017.6
20190420071704 17 21 0.0 4.8 0.00 0.00 0.00 68 1017.7
20190420070705 16 24 0.0 1.6 0.00 0.00 0.00 69 1017.7
20190420065707 16 21 0.0 0.0 0.00 0.00 0.00 70 1017.6
20190420064704 16 21 0.0 0.0 0.00 0.00 0.00 70 1017.8
20190420063704 16 21 0.0 0.0 0.00 0.00 0.00 71 1017.8
20190420062705 16 21 0.0 0.0 0.00 0.00 0.00 70 1017.6
20190420061712 15 22 0.0 4.8 0.00 0.00 0.00 71 1017.7